TITAN 3C TRANSTAGE DEB, 26764

Orbit data source: Space-Track

TITAN 3C TRANSTAGE DEB, 26764 is space debris in HEO originally from a launch on Tue, 21 Dec 1965 UTC launched from the Air Force Eastern Test Range (AFETR). Debris objects in space refer to the collection of defunct objects orbiting the Earth. Examples of debris include non-operational satellites, rocket bodies, and fragments generated from explosions, collisions, or faulty payload assembly.

Loading next visibility...
Identifier
26764, 1965-108AT
Orbit
HEO
Country
Flag of USUS
Related business
Manufacturer
Unknown
Mission
Spacecraft
Bus & Motor
Unknown
Mass
Unknown
Launch date (UTC)
1965-12-21 (60 years ago)
Launch vehicle
Unknown
Launch site
Air Force Eastern Test Range (AFETR)
Object type
Payload
Rocket body
Debris
Shape & HBR
Unknown shape, 1.1 m
Radar Cross Section
Small (<0.1 m²)

Expand to show TLE details & history
Last TLE update: 1 week ago

TLE from 1 week ago
0 TITAN 3C TRANSTAGE DEB
1 26764U 65108AT  25335.01622646  .00000056  00000-0  10017-2 0  9992
2 26764  26.2022 193.1286 6781229 196.0073 353.4675  2.67009350  7127
Epoch: 2025-12-01T00:23Z
TLE epoch observation values (Epoch: 2025-12-01T00:23:21.966Z)
Latitude
11.92069°
Longitude
-88.09008°
Altitude
1,575.522 km
Speed
9.059 km/s
True Right ascension
23h 11m 29s
True Declination
11° 51' 31"
Sunlit
Object was in daylight at epoch
Visualization orbit readout
Latitude
Unknown
Longitude
Unknown
Altitude
Unknown
Speed
Unknown
Apparent Right ascension
Unknown
Apparent Declination
Unknown
Sunlit
N/A
Visualization observer readout
Local Sidereal Time
03:33:03
Azimuth
Unknown
Elevation
Unknown
Doppler factor
Unknown
Orbital elements
Apogee altitude
30,458.417 km
Perigee altitude
687.402 km
Semi-major axis
21,951.047 km
Eccentricity
0.67812
Inclination
26.2022°
RAAN
193.1286°
Arg. of periapsis
196.0073°
True anomaly
317.14345°
Mean anomaly
353.4675°
Eccentric anomaly
340.4942°
Mean motion
0.66736 °/min
Orbital period
539.44 mins
BSTAR
0.0010017
Loading maneuver chart data...
Computing Atmospheric mass density...

Documentation

Showing up to 5 results
|